iso_date,Year,Hour,Min,DOY,POS_DOY,Lat,Lon,BP,Ts,Ta,has_bp,has_ts,has_ta,BuoyID,Buoy_Type,Buoy_Owner,Logistics,Hemisphere
2021-11-23T16:00:02Z,2021,16,0,327.6667,327.6667,61.932,-60.595,-999.0,1.21,-999.0,no,yes,no,300234068347720,SVPGHI,AOML,UNKNOWN,North
2021-11-23T18:00:00Z,2021,18,0,327.75,327.75,61.943,-60.551,-999.0,1.21,-999.0,no,yes,no,300234068347720,SVPGHI,AOML,UNKNOWN,North
2021-11-23T19:00:02Z,2021,19,0,327.7917,327.7917,61.947,-60.523,-999.0,1.21,-999.0,no,yes,no,300234068347720,SVPGHI,AOML,UNKNOWN,North
2021-11-23T19:59:57Z,2021,20,0,327.8333,327.8333,61.945,-60.482,-999.0,1.2,-999.0,no,yes,no,300234068347720,SVPGHI,AOML,UNKNOWN,North
2021-11-23T21:00:00Z,2021,21,0,327.875,327.875,61.941,-60.452,-999.0,1.2,-999.0,no,yes,no,300234068347720,SVPGHI,AOML,UNKNOWN,North
2021-11-23T22:00:02Z,2021,22,0,327.9167,327.9167,61.931,-60.431,-999.0,1.22,-999.0,no,yes,no,300234068347720,SVPGHI,AOML,UNKNOWN,North
2021-11-23T22:59:57Z,2021,23,0,327.9583,327.9583,61.916,-60.427,-999.0,1.25,-999.0,no,yes,no,300234068347720,SVPGHI,AOML,UNKNOWN,North
2021-11-24T00:01:00Z,2021,0,1,328.0007,328.0007,61.903,-60.427,-999.0,1.25,-999.0,no,yes,no,300234068347720,SVPGHI,AOML,UNKNOWN,North
2021-11-24T01:03:04Z,2021,1,3,328.0438,328.0438,61.887,-60.434,-999.0,1.26,-999.0,no,yes,no,300234068347720,SVPGHI,AOML,UNKNOWN,North
2021-11-24T01:59:57Z,2021,2,0,328.0833,328.0833,61.876,-60.445,-999.0,1.26,-999.0,no,yes,no,300234068347720,SVPGHI,AOML,UNKNOWN,North
2021-11-24T04:03:56Z,2021,4,4,328.1694,328.1694,61.866,-60.467,-999.0,1.27,-999.0,no,yes,no,300234068347720,SVPGHI,AOML,UNKNOWN,North
2021-11-24T04:59:57Z,2021,5,0,328.2083,328.2083,61.87,-60.462,-999.0,1.28,-999.0,no,yes,no,300234068347720,SVPGHI,AOML,UNKNOWN,North
2021-11-24T06:00:00Z,2021,6,0,328.25,328.25,61.873,-60.442,-999.0,1.29,-999.0,no,yes,no,300234068347720,SVPGHI,AOML,UNKNOWN,North
2021-11-24T07:00:02Z,2021,7,0,328.2917,328.2917,61.874,-60.414,-999.0,1.32,-999.0,no,yes,no,300234068347720,SVPGHI,AOML,UNKNOWN,North
2021-11-24T07:59:57Z,2021,8,0,328.3333,328.3333,61.872,-60.379,-999.0,1.31,-999.0,no,yes,no,300234068347720,SVPGHI,AOML,UNKNOWN,North
2021-11-24T09:00:00Z,2021,9,0,328.375,328.375,61.862,-60.343,-999.0,1.31,-999.0,no,yes,no,300234068347720,SVPGHI,AOML,UNKNOWN,North
2021-11-24T10:00:02Z,2021,10,0,328.4167,328.4167,61.849,-60.321,-999.0,1.32,-999.0,no,yes,no,300234068347720,SVPGHI,AOML,UNKNOWN,North
2021-11-24T12:00:00Z,2021,12,0,328.5,328.5,61.812,-60.325,-999.0,1.32,-999.0,no,yes,no,300234068347720,SVPGHI,AOML,UNKNOWN,North
2021-11-24T13:00:02Z,2021,13,0,328.5417,328.5417,61.798,-60.344,-999.0,1.33,-999.0,no,yes,no,300234068347720,SVPGHI,AOML,UNKNOWN,North
2021-11-24T13:59:57Z,2021,14,0,328.5833,328.5833,61.785,-60.37,-999.0,1.32,-999.0,no,yes,no,300234068347720,SVPGHI,AOML,UNKNOWN,North
2021-11-24T15:00:00Z,2021,15,0,328.625,328.625,61.777,-60.4,-999.0,1.32,-999.0,no,yes,no,300234068347720,SVPGHI,AOML,UNKNOWN,North
2021-11-24T16:03:56Z,2021,16,4,328.6694,328.6694,61.774,-60.427,-999.0,1.33,-999.0,no,yes,no,300234068347720,SVPGHI,AOML,UNKNOWN,North
2021-11-24T17:02:58Z,2021,17,3,328.7104,328.7104,61.782,-60.447,-999.0,1.31,-999.0,no,yes,no,300234068347720,SVPGHI,AOML,UNKNOWN,North
2021-11-24T18:00:00Z,2021,18,0,328.75,328.75,61.784,-60.438,-999.0,1.32,-999.0,no,yes,no,300234068347720,SVPGHI,AOML,UNKNOWN,North
2021-11-24T19:00:02Z,2021,19,0,328.7917,328.7917,61.788,-60.424,-999.0,1.31,-999.0,no,yes,no,300234068347720,SVPGHI,AOML,UNKNOWN,North
2021-11-24T19:59:57Z,2021,20,0,328.8333,328.8333,61.788,-60.39,-999.0,1.31,-999.0,no,yes,no,300234068347720,SVPGHI,AOML,UNKNOWN,North
2021-11-24T21:00:00Z,2021,21,0,328.875,328.875,61.785,-60.36,-999.0,1.31,-999.0,no,yes,no,300234068347720,SVPGHI,AOML,UNKNOWN,North
2021-11-24T22:00:02Z,2021,22,0,328.9167,328.9167,61.776,-60.339,-999.0,1.3,-999.0,no,yes,no,300234068347720,SVPGHI,AOML,UNKNOWN,North
2021-11-24T22:59:57Z,2021,23,0,328.9583,328.9583,61.762,-60.325,-999.0,1.31,-999.0,no,yes,no,300234068347720,SVPGHI,AOML,UNKNOWN,North
2021-11-25T00:00:00Z,2021,0,0,329.0,329.0,61.745,-60.331,-999.0,1.31,-999.0,no,yes,no,300234068347720,SVPGHI,AOML,UNKNOWN,North
2021-11-25T01:00:02Z,2021,1,0,329.0417,329.0417,61.728,-60.342,-999.0,1.31,-999.0,no,yes,no,300234068347720,SVPGHI,AOML,UNKNOWN,North
2021-11-25T01:59:57Z,2021,2,0,329.0833,329.0833,61.716,-60.361,-999.0,1.31,-999.0,no,yes,no,300234068347720,SVPGHI,AOML,UNKNOWN,North
2021-11-25T03:00:00Z,2021,3,0,329.125,329.125,61.706,-60.386,-999.0,1.3,-999.0,no,yes,no,300234068347720,SVPGHI,AOML,UNKNOWN,North
2021-11-25T04:03:56Z,2021,4,4,329.1694,329.1694,-90.0,-180.0,-999.0,1.3,-999.0,no,yes,no,300234068347720,SVPGHI,AOML,UNKNOWN,North
2021-11-25T05:03:59Z,2021,5,4,329.2111,329.2111,-90.0,-180.0,-999.0,1.31,-999.0,no,yes,no,300234068347720,SVPGHI,AOML,UNKNOWN,North
2021-11-25T06:01:00Z,2021,6,1,329.2507,329.2507,61.696,-60.423,-999.0,1.33,-999.0,no,yes,no,300234068347720,SVPGHI,AOML,UNKNOWN,North
2021-11-25T07:00:02Z,2021,7,0,329.2917,329.2917,61.696,-60.415,-999.0,1.33,-999.0,no,yes,no,300234068347720,SVPGHI,AOML,UNKNOWN,North
2021-11-25T07:59:57Z,2021,8,0,329.3333,329.3333,61.699,-60.394,-999.0,1.34,-999.0,no,yes,no,300234068347720,SVPGHI,AOML,UNKNOWN,North
2021-11-25T09:00:00Z,2021,9,0,329.375,329.375,61.697,-60.374,-999.0,1.35,-999.0,no,yes,no,300234068347720,SVPGHI,AOML,UNKNOWN,North
2021-11-25T10:00:02Z,2021,10,0,329.4167,329.4167,61.697,-60.345,-999.0,1.37,-999.0,no,yes,no,300234068347720,SVPGHI,AOML,UNKNOWN,North
2021-11-25T12:01:00Z,2021,12,1,329.5007,329.5007,61.669,-60.31,-999.0,1.34,-999.0,no,yes,no,300234068347720,SVPGHI,AOML,UNKNOWN,North
2021-11-25T13:00:02Z,2021,13,0,329.5417,329.5417,61.652,-60.311,-999.0,1.33,-999.0,no,yes,no,300234068347720,SVPGHI,AOML,UNKNOWN,North
2021-11-25T13:59:57Z,2021,14,0,329.5833,329.5833,61.633,-60.329,-999.0,1.35,-999.0,no,yes,no,300234068347720,SVPGHI,AOML,UNKNOWN,North
2021-11-25T15:00:00Z,2021,15,0,329.625,329.625,61.619,-60.358,-999.0,1.37,-999.0,no,yes,no,300234068347720,SVPGHI,AOML,UNKNOWN,North
2021-11-25T18:04:01Z,2021,18,4,329.7528,329.7528,-90.0,-180.0,-999.0,1.41,-999.0,no,yes,no,300234068347720,SVPGHI,AOML,UNKNOWN,North
2021-11-25T19:03:56Z,2021,19,4,329.7944,329.7944,61.607,-60.446,-999.0,1.41,-999.0,no,yes,no,300234068347720,SVPGHI,AOML,UNKNOWN,North
2021-11-25T20:01:58Z,2021,20,2,329.8347,329.8347,61.608,-60.437,-999.0,1.42,-999.0,no,yes,no,300234068347720,SVPGHI,AOML,UNKNOWN,North
2021-11-25T21:00:00Z,2021,21,0,329.875,329.875,61.612,-60.427,-999.0,1.44,-999.0,no,yes,no,300234068347720,SVPGHI,AOML,UNKNOWN,North
2021-11-25T22:00:02Z,2021,22,0,329.9167,329.9167,61.604,-60.407,-999.0,1.44,-999.0,no,yes,no,300234068347720,SVPGHI,AOML,UNKNOWN,North
2021-11-25T22:59:57Z,2021,23,0,329.9583,329.9583,61.609,-60.38,-999.0,1.44,-999.0,no,yes,no,300234068347720,SVPGHI,AOML,UNKNOWN,North
2021-11-26T00:00:00Z,2021,0,0,330.0,330.0,61.596,-60.365,-999.0,1.45,-999.0,no,yes,no,300234068347720,SVPGHI,AOML,UNKNOWN,North
2021-11-26T01:00:02Z,2021,1,0,330.0417,330.0417,61.58,-60.359,-999.0,1.45,-999.0,no,yes,no,300234068347720,SVPGHI,AOML,UNKNOWN,North
2021-11-26T01:59:57Z,2021,2,0,330.0833,330.0833,61.56,-60.363,-999.0,1.44,-999.0,no,yes,no,300234068347720,SVPGHI,AOML,UNKNOWN,North
2021-11-26T03:00:00Z,2021,3,0,330.125,330.125,61.538,-60.383,-999.0,1.43,-999.0,no,yes,no,300234068347720,SVPGHI,AOML,UNKNOWN,North
2021-11-26T04:02:03Z,2021,4,2,330.1681,330.1681,61.517,-60.414,-999.0,1.43,-999.0,no,yes,no,300234068347720,SVPGHI,AOML,UNKNOWN,North
2021-11-26T05:02:58Z,2021,5,3,330.2104,330.2104,61.507,-60.448,-999.0,1.43,-999.0,no,yes,no,300234068347720,SVPGHI,AOML,UNKNOWN,North
2021-11-26T06:00:00Z,2021,6,0,330.25,330.25,61.502,-60.474,-999.0,1.42,-999.0,no,yes,no,300234068347720,SVPGHI,AOML,UNKNOWN,North
2021-11-26T07:00:02Z,2021,7,0,330.2917,330.2917,61.501,-60.49,-999.0,1.43,-999.0,no,yes,no,300234068347720,SVPGHI,AOML,UNKNOWN,North
2021-11-26T07:59:57Z,2021,8,0,330.3333,330.3333,61.502,-60.498,-999.0,1.44,-999.0,no,yes,no,300234068347720,SVPGHI,AOML,UNKNOWN,North
2021-11-26T09:00:00Z,2021,9,0,330.375,330.375,61.505,-60.495,-999.0,1.43,-999.0,no,yes,no,300234068347720,SVPGHI,AOML,UNKNOWN,North
2021-11-26T10:02:03Z,2021,10,2,330.4181,330.4181,61.51,-60.465,-999.0,1.43,-999.0,no,yes,no,300234068347720,SVPGHI,AOML,UNKNOWN,North
2021-11-26T13:00:02Z,2021,13,0,330.5417,330.5417,61.48,-60.406,-999.0,1.42,-999.0,no,yes,no,300234068347720,SVPGHI,AOML,UNKNOWN,North
2021-11-26T13:59:57Z,2021,14,0,330.5833,330.5833,61.453,-60.414,-999.0,1.4,-999.0,no,yes,no,300234068347720,SVPGHI,AOML,UNKNOWN,North
2021-11-26T15:00:00Z,2021,15,0,330.625,330.625,61.433,-60.44,-999.0,1.4,-999.0,no,yes,no,300234068347720,SVPGHI,AOML,UNKNOWN,North
2021-11-26T16:00:02Z,2021,16,0,330.6667,330.6667,61.414,-60.476,-999.0,1.38,-999.0,no,yes,no,300234068347720,SVPGHI,AOML,UNKNOWN,North
2021-11-26T16:59:57Z,2021,17,0,330.7083,330.7083,61.404,-60.516,-999.0,1.38,-999.0,no,yes,no,300234068347720,SVPGHI,AOML,UNKNOWN,North
2021-11-26T18:01:00Z,2021,18,1,330.7507,330.7507,61.397,-60.554,-999.0,1.37,-999.0,no,yes,no,300234068347720,SVPGHI,AOML,UNKNOWN,North
2021-11-26T19:03:56Z,2021,19,4,330.7944,330.7944,-90.0,-180.0,-999.0,1.34,-999.0,no,yes,no,300234068347720,SVPGHI,AOML,UNKNOWN,North
2021-11-26T20:03:59Z,2021,20,4,330.8361,330.8361,-90.0,-180.0,-999.0,1.3,-999.0,no,yes,no,300234068347720,SVPGHI,AOML,UNKNOWN,North
2021-11-26T21:04:01Z,2021,21,4,330.8778,330.8778,61.4,-60.581,-999.0,1.22,-999.0,no,yes,no,300234068347720,SVPGHI,AOML,UNKNOWN,North
2021-11-26T22:00:02Z,2021,22,0,330.9167,330.9167,61.401,-60.577,-999.0,1.2,-999.0,no,yes,no,300234068347720,SVPGHI,AOML,UNKNOWN,North
2021-11-26T23:03:59Z,2021,23,4,330.9611,330.9611,61.396,-60.572,-999.0,1.2,-999.0,no,yes,no,300234068347720,SVPGHI,AOML,UNKNOWN,North
2021-11-27T00:03:01Z,2021,0,3,331.0021,331.0021,61.391,-60.574,-999.0,1.2,-999.0,no,yes,no,300234068347720,SVPGHI,AOML,UNKNOWN,North
2021-11-27T01:00:02Z,2021,1,0,331.0417,331.0417,61.377,-60.579,-999.0,1.2,-999.0,no,yes,no,300234068347720,SVPGHI,AOML,UNKNOWN,North
2021-11-27T01:59:57Z,2021,2,0,331.0833,331.0833,61.359,-60.591,-999.0,1.21,-999.0,no,yes,no,300234068347720,SVPGHI,AOML,UNKNOWN,North
2021-11-27T03:00:00Z,2021,3,0,331.125,331.125,61.346,-60.617,-999.0,1.21,-999.0,no,yes,no,300234068347720,SVPGHI,AOML,UNKNOWN,North
2021-11-27T04:00:02Z,2021,4,0,331.1667,331.1667,61.337,-60.647,-999.0,1.21,-999.0,no,yes,no,300234068347720,SVPGHI,AOML,UNKNOWN,North
2021-11-27T04:59:57Z,2021,5,0,331.2083,331.2083,61.328,-60.671,-999.0,1.22,-999.0,no,yes,no,300234068347720,SVPGHI,AOML,UNKNOWN,North
2021-11-27T06:00:00Z,2021,6,0,331.25,331.25,61.321,-60.69,-999.0,1.22,-999.0,no,yes,no,300234068347720,SVPGHI,AOML,UNKNOWN,North
2021-11-27T07:00:02Z,2021,7,0,331.2917,331.2917,61.315,-60.699,-999.0,1.22,-999.0,no,yes,no,300234068347720,SVPGHI,AOML,UNKNOWN,North
2021-11-27T07:59:57Z,2021,8,0,331.3333,331.3333,61.309,-60.695,-999.0,1.22,-999.0,no,yes,no,300234068347720,SVPGHI,AOML,UNKNOWN,North
2021-11-27T09:03:01Z,2021,9,3,331.3771,331.3771,61.298,-60.694,-999.0,1.23,-999.0,no,yes,no,300234068347720,SVPGHI,AOML,UNKNOWN,North
2021-11-27T10:00:02Z,2021,10,0,331.4167,331.4167,61.287,-60.698,-999.0,1.23,-999.0,no,yes,no,300234068347720,SVPGHI,AOML,UNKNOWN,North
2021-11-27T12:04:01Z,2021,12,4,331.5028,331.5028,61.269,-60.707,-999.0,1.22,-999.0,no,yes,no,300234068347720,SVPGHI,AOML,UNKNOWN,North
2021-11-27T13:03:04Z,2021,13,3,331.5438,331.5438,61.257,-60.721,-999.0,1.22,-999.0,no,yes,no,300234068347720,SVPGHI,AOML,UNKNOWN,North
2021-11-27T13:59:57Z,2021,14,0,331.5833,331.5833,61.249,-60.742,-999.0,1.21,-999.0,no,yes,no,300234068347720,SVPGHI,AOML,UNKNOWN,North
2021-11-27T15:00:00Z,2021,15,0,331.625,331.625,61.245,-60.762,-999.0,1.21,-999.0,no,yes,no,300234068347720,SVPGHI,AOML,UNKNOWN,North
2021-11-27T16:03:56Z,2021,16,4,331.6694,331.6694,61.234,-60.769,-999.0,1.19,-999.0,no,yes,no,300234068347720,SVPGHI,AOML,UNKNOWN,North
2021-11-27T16:59:57Z,2021,17,0,331.7083,331.7083,61.23,-60.775,-999.0,1.18,-999.0,no,yes,no,300234068347720,SVPGHI,AOML,UNKNOWN,North
2021-11-27T18:00:00Z,2021,18,0,331.75,331.75,61.22,-60.782,-999.0,1.16,-999.0,no,yes,no,300234068347720,SVPGHI,AOML,UNKNOWN,North
2021-11-27T19:00:02Z,2021,19,0,331.7917,331.7917,61.211,-60.782,-999.0,1.15,-999.0,no,yes,no,300234068347720,SVPGHI,AOML,UNKNOWN,North
2021-11-27T19:59:57Z,2021,20,0,331.8333,331.8333,61.201,-60.783,-999.0,1.15,-999.0,no,yes,no,300234068347720,SVPGHI,AOML,UNKNOWN,North
2021-11-27T21:00:00Z,2021,21,0,331.875,331.875,61.19,-60.79,-999.0,1.15,-999.0,no,yes,no,300234068347720,SVPGHI,AOML,UNKNOWN,North
2021-11-27T22:01:03Z,2021,22,1,331.9174,331.9174,61.18,-60.798,-999.0,1.15,-999.0,no,yes,no,300234068347720,SVPGHI,AOML,UNKNOWN,North
2021-11-28T00:00:00Z,2021,0,0,332.0,332.0,61.161,-60.821,-999.0,1.13,-999.0,no,yes,no,300234068347720,SVPGHI,AOML,UNKNOWN,North
2021-11-28T01:01:03Z,2021,1,1,332.0424,332.0424,61.154,-60.834,-999.0,1.13,-999.0,no,yes,no,300234068347720,SVPGHI,AOML,UNKNOWN,North
2021-11-28T02:00:57Z,2021,2,1,332.084,332.084,61.148,-60.84,-999.0,1.12,-999.0,no,yes,no,300234068347720,SVPGHI,AOML,UNKNOWN,North
2021-11-28T03:00:00Z,2021,3,0,332.125,332.125,61.143,-60.845,-999.0,1.12,-999.0,no,yes,no,300234068347720,SVPGHI,AOML,UNKNOWN,North
2021-11-28T04:01:03Z,2021,4,1,332.1674,332.1674,61.136,-60.857,-999.0,1.12,-999.0,no,yes,no,300234068347720,SVPGHI,AOML,UNKNOWN,North
2021-11-28T04:59:57Z,2021,5,0,332.2083,332.2083,61.132,-60.869,-999.0,1.12,-999.0,no,yes,no,300234068347720,SVPGHI,AOML,UNKNOWN,North
2021-11-28T06:00:00Z,2021,6,0,332.25,332.25,61.128,-60.871,-999.0,1.12,-999.0,no,yes,no,300234068347720,SVPGHI,AOML,UNKNOWN,North
2021-11-28T07:01:03Z,2021,7,1,332.2924,332.2924,61.121,-60.869,-999.0,1.12,-999.0,no,yes,no,300234068347720,SVPGHI,AOML,UNKNOWN,North
2021-11-28T07:59:57Z,2021,8,0,332.3333,332.3333,61.107,-60.868,-999.0,1.11,-999.0,no,yes,no,300234068347720,SVPGHI,AOML,UNKNOWN,North
2021-11-28T09:00:00Z,2021,9,0,332.375,332.375,61.093,-60.866,-999.0,1.1,-999.0,no,yes,no,300234068347720,SVPGHI,AOML,UNKNOWN,North
2021-11-28T10:00:02Z,2021,10,0,332.4167,332.4167,61.082,-60.862,-999.0,1.09,-999.0,no,yes,no,300234068347720,SVPGHI,AOML,UNKNOWN,North
2021-11-28T13:03:56Z,2021,13,4,332.5444,332.5444,61.056,-60.862,-999.0,1.1,-999.0,no,yes,no,300234068347720,SVPGHI,AOML,UNKNOWN,North
2021-11-28T13:59:57Z,2021,14,0,332.5833,332.5833,61.047,-60.862,-999.0,1.1,-999.0,no,yes,no,300234068347720,SVPGHI,AOML,UNKNOWN,North
2021-11-28T15:04:01Z,2021,15,4,332.6278,332.6278,61.036,-60.871,-999.0,1.11,-999.0,no,yes,no,300234068347720,SVPGHI,AOML,UNKNOWN,North
2021-11-28T16:03:04Z,2021,16,3,332.6688,332.6688,61.029,-60.883,-999.0,1.11,-999.0,no,yes,no,300234068347720,SVPGHI,AOML,UNKNOWN,North
2021-11-28T16:59:57Z,2021,17,0,332.7083,332.7083,61.023,-60.895,-999.0,1.12,-999.0,no,yes,no,300234068347720,SVPGHI,AOML,UNKNOWN,North
2021-11-28T18:00:00Z,2021,18,0,332.75,332.75,61.017,-60.903,-999.0,1.12,-999.0,no,yes,no,300234068347720,SVPGHI,AOML,UNKNOWN,North
2021-11-28T19:00:02Z,2021,19,0,332.7917,332.7917,61.009,-60.915,-999.0,1.12,-999.0,no,yes,no,300234068347720,SVPGHI,AOML,UNKNOWN,North
2021-11-28T19:59:57Z,2021,20,0,332.8333,332.8333,61.009,-60.923,-999.0,1.11,-999.0,no,yes,no,300234068347720,SVPGHI,AOML,UNKNOWN,North
2021-11-28T21:04:01Z,2021,21,4,332.8778,332.8778,61.002,-60.919,-999.0,1.1,-999.0,no,yes,no,300234068347720,SVPGHI,AOML,UNKNOWN,North
2021-11-28T22:00:02Z,2021,22,0,332.9167,332.9167,60.994,-60.915,-999.0,1.11,-999.0,no,yes,no,300234068347720,SVPGHI,AOML,UNKNOWN,North
2021-11-28T23:03:59Z,2021,23,4,332.9611,332.9611,60.984,-60.907,-999.0,1.11,-999.0,no,yes,no,300234068347720,SVPGHI,AOML,UNKNOWN,North
2021-11-29T00:02:00Z,2021,0,2,333.0014,333.0014,60.981,-60.886,-999.0,1.11,-999.0,no,yes,no,300234068347720,SVPGHI,AOML,UNKNOWN,North
2021-11-29T01:00:02Z,2021,1,0,333.0417,333.0417,60.97,-60.875,-999.0,1.12,-999.0,no,yes,no,300234068347720,SVPGHI,AOML,UNKNOWN,North
2021-11-29T01:59:57Z,2021,2,0,333.0833,333.0833,60.959,-60.865,-999.0,1.12,-999.0,no,yes,no,300234068347720,SVPGHI,AOML,UNKNOWN,North
2021-11-29T03:00:00Z,2021,3,0,333.125,333.125,60.947,-60.867,-999.0,1.13,-999.0,no,yes,no,300234068347720,SVPGHI,AOML,UNKNOWN,North
2021-11-29T04:03:56Z,2021,4,4,333.1694,333.1694,60.937,-60.884,-999.0,1.12,-999.0,no,yes,no,300234068347720,SVPGHI,AOML,UNKNOWN,North
2021-11-29T05:02:58Z,2021,5,3,333.2104,333.2104,60.93,-60.907,-999.0,1.13,-999.0,no,yes,no,300234068347720,SVPGHI,AOML,UNKNOWN,North
2021-11-29T06:00:00Z,2021,6,0,333.25,333.25,60.922,-60.924,-999.0,1.13,-999.0,no,yes,no,300234068347720,SVPGHI,AOML,UNKNOWN,North
2021-11-29T07:59:57Z,2021,8,0,333.3333,333.3333,60.913,-60.972,-999.0,1.14,-999.0,no,yes,no,300234068347720,SVPGHI,AOML,UNKNOWN,North
2021-11-29T09:00:00Z,2021,9,0,333.375,333.375,60.913,-60.983,-999.0,1.13,-999.0,no,yes,no,300234068347720,SVPGHI,AOML,UNKNOWN,North
2021-11-29T10:00:02Z,2021,10,0,333.4167,333.4167,60.916,-60.968,-999.0,1.12,-999.0,no,yes,no,300234068347720,SVPGHI,AOML,UNKNOWN,North
2021-11-29T11:00:57Z,2021,11,1,333.459,333.459,60.916,-60.946,-999.0,1.11,-999.0,no,yes,no,300234068347720,SVPGHI,AOML,UNKNOWN,North
2021-11-29T13:00:02Z,2021,13,0,333.5417,333.5417,60.894,-60.884,-999.0,1.05,-999.0,no,yes,no,300234068347720,SVPGHI,AOML,UNKNOWN,North
2021-11-29T13:59:57Z,2021,14,0,333.5833,333.5833,60.876,-60.86,-999.0,1.06,-999.0,no,yes,no,300234068347720,SVPGHI,AOML,UNKNOWN,North
2021-11-29T15:00:00Z,2021,15,0,333.625,333.625,60.857,-60.863,-999.0,1.1,-999.0,no,yes,no,300234068347720,SVPGHI,AOML,UNKNOWN,North
2021-11-29T16:03:56Z,2021,16,4,333.6694,333.6694,60.837,-60.887,-999.0,1.12,-999.0,no,yes,no,300234068347720,SVPGHI,AOML,UNKNOWN,North
2021-11-29T16:59:57Z,2021,17,0,333.7083,333.7083,60.824,-60.906,-999.0,1.14,-999.0,no,yes,no,300234068347720,SVPGHI,AOML,UNKNOWN,North
2021-11-29T18:03:01Z,2021,18,3,333.7521,333.7521,60.815,-60.926,-999.0,1.14,-999.0,no,yes,no,300234068347720,SVPGHI,AOML,UNKNOWN,North
2021-11-29T19:00:02Z,2021,19,0,333.7917,333.7917,60.81,-60.946,-999.0,1.21,-999.0,no,yes,no,300234068347720,SVPGHI,AOML,UNKNOWN,North
2021-11-29T21:04:01Z,2021,21,4,333.8778,333.8778,60.809,-60.936,-999.0,1.28,-999.0,no,yes,no,300234068347720,SVPGHI,AOML,UNKNOWN,North
2021-11-29T23:03:59Z,2021,23,4,333.9611,333.9611,60.791,-60.888,-999.0,1.34,-999.0,no,yes,no,300234068347720,SVPGHI,AOML,UNKNOWN,North
2021-11-30T00:04:01Z,2021,0,4,334.0028,334.0028,60.772,-60.85,-999.0,1.35,-999.0,no,yes,no,300234068347720,SVPGHI,AOML,UNKNOWN,North
2021-11-30T01:01:03Z,2021,1,1,334.0424,334.0424,60.75,-60.819,-999.0,1.36,-999.0,no,yes,no,300234068347720,SVPGHI,AOML,UNKNOWN,North
2021-11-30T02:03:59Z,2021,2,4,334.0861,334.0861,-90.0,-180.0,-999.0,1.39,-999.0,no,yes,no,300234068347720,SVPGHI,AOML,UNKNOWN,North
2021-11-30T03:04:01Z,2021,3,4,334.1278,334.1278,60.697,-60.808,-999.0,1.39,-999.0,no,yes,no,300234068347720,SVPGHI,AOML,UNKNOWN,North
2021-11-30T04:03:56Z,2021,4,4,334.1694,334.1694,60.684,-60.818,-999.0,1.41,-999.0,no,yes,no,300234068347720,SVPGHI,AOML,UNKNOWN,North
2021-11-30T05:03:59Z,2021,5,4,334.2111,334.2111,-90.0,-180.0,-999.0,1.43,-999.0,no,yes,no,300234068347720,SVPGHI,AOML,UNKNOWN,North
2021-11-30T06:00:00Z,2021,6,0,334.25,334.25,60.665,-60.86,-999.0,1.45,-999.0,no,yes,no,300234068347720,SVPGHI,AOML,UNKNOWN,North
2021-11-30T07:03:56Z,2021,7,4,334.2944,334.2944,-90.0,-180.0,-999.0,1.46,-999.0,no,yes,no,300234068347720,SVPGHI,AOML,UNKNOWN,North
2021-11-30T08:03:59Z,2021,8,4,334.3361,334.3361,-90.0,-180.0,-999.0,1.46,-999.0,no,yes,no,300234068347720,SVPGHI,AOML,UNKNOWN,North
2021-11-30T09:04:01Z,2021,9,4,334.3778,334.3778,60.646,-60.861,-999.0,1.47,-999.0,no,yes,no,300234068347720,SVPGHI,AOML,UNKNOWN,North
2021-11-30T10:03:56Z,2021,10,4,334.4194,334.4194,60.652,-60.837,-999.0,1.47,-999.0,no,yes,no,300234068347720,SVPGHI,AOML,UNKNOWN,North
2021-11-30T12:00:00Z,2021,12,0,334.5,334.5,60.623,-60.78,-999.0,1.48,-999.0,no,yes,no,300234068347720,SVPGHI,AOML,UNKNOWN,North
2021-11-30T13:00:02Z,2021,13,0,334.5417,334.5417,60.604,-60.762,-999.0,1.49,-999.0,no,yes,no,300234068347720,SVPGHI,AOML,UNKNOWN,North
2021-11-30T13:59:57Z,2021,14,0,334.5833,334.5833,60.587,-60.746,-999.0,1.48,-999.0,no,yes,no,300234068347720,SVPGHI,AOML,UNKNOWN,North
2021-11-30T15:01:00Z,2021,15,1,334.6257,334.6257,60.568,-60.732,-999.0,1.47,-999.0,no,yes,no,300234068347720,SVPGHI,AOML,UNKNOWN,North
2021-11-30T16:00:02Z,2021,16,0,334.6667,334.6667,60.55,-60.729,-999.0,1.47,-999.0,no,yes,no,300234068347720,SVPGHI,AOML,UNKNOWN,North
2021-11-30T16:59:57Z,2021,17,0,334.7083,334.7083,60.533,-60.736,-999.0,1.46,-999.0,no,yes,no,300234068347720,SVPGHI,AOML,UNKNOWN,North
2021-11-30T18:04:01Z,2021,18,4,334.7528,334.7528,60.519,-60.753,-999.0,1.48,-999.0,no,yes,no,300234068347720,SVPGHI,AOML,UNKNOWN,North
2021-11-30T19:00:02Z,2021,19,0,334.7917,334.7917,60.511,-60.77,-999.0,1.51,-999.0,no,yes,no,300234068347720,SVPGHI,AOML,UNKNOWN,North
2021-11-30T19:59:57Z,2021,20,0,334.8333,334.8333,60.507,-60.784,-999.0,1.52,-999.0,no,yes,no,300234068347720,SVPGHI,AOML,UNKNOWN,North
2021-11-30T21:00:00Z,2021,21,0,334.875,334.875,60.504,-60.794,-999.0,1.5,-999.0,no,yes,no,300234068347720,SVPGHI,AOML,UNKNOWN,North
2021-11-30T22:03:56Z,2021,22,4,334.9194,334.9194,-90.0,-180.0,-999.0,1.5,-999.0,no,yes,no,300234068347720,SVPGHI,AOML,UNKNOWN,North
2021-11-30T23:03:59Z,2021,23,4,334.9611,334.9611,60.495,-60.779,-999.0,1.5,-999.0,no,yes,no,300234068347720,SVPGHI,AOML,UNKNOWN,North
2021-12-01T00:01:00Z,2021,0,1,335.0007,335.0007,60.482,-60.765,-999.0,1.49,-999.0,no,yes,no,300234068347720,SVPGHI,AOML,UNKNOWN,North
2021-12-01T01:00:02Z,2021,1,0,335.0417,335.0417,60.471,-60.749,-999.0,1.49,-999.0,no,yes,no,300234068347720,SVPGHI,AOML,UNKNOWN,North
2021-12-01T01:59:57Z,2021,2,0,335.0833,335.0833,60.459,-60.731,-999.0,1.49,-999.0,no,yes,no,300234068347720,SVPGHI,AOML,UNKNOWN,North
2021-12-01T03:00:00Z,2021,3,0,335.125,335.125,60.443,-60.711,-999.0,1.5,-999.0,no,yes,no,300234068347720,SVPGHI,AOML,UNKNOWN,North
2021-12-01T04:00:02Z,2021,4,0,335.1667,335.1667,60.423,-60.694,-999.0,1.49,-999.0,no,yes,no,300234068347720,SVPGHI,AOML,UNKNOWN,North
2021-12-01T04:59:57Z,2021,5,0,335.2083,335.2083,60.399,-60.688,-999.0,1.51,-999.0,no,yes,no,300234068347720,SVPGHI,AOML,UNKNOWN,North
2021-12-01T06:00:00Z,2021,6,0,335.25,335.25,60.378,-60.701,-999.0,1.52,-999.0,no,yes,no,300234068347720,SVPGHI,AOML,UNKNOWN,North
2021-12-01T07:00:02Z,2021,7,0,335.2917,335.2917,60.358,-60.722,-999.0,1.52,-999.0,no,yes,no,300234068347720,SVPGHI,AOML,UNKNOWN,North
2021-12-01T07:59:57Z,2021,8,0,335.3333,335.3333,60.346,-60.753,-999.0,1.53,-999.0,no,yes,no,300234068347720,SVPGHI,AOML,UNKNOWN,North
2021-12-01T09:00:00Z,2021,9,0,335.375,335.375,60.336,-60.778,-999.0,1.53,-999.0,no,yes,no,300234068347720,SVPGHI,AOML,UNKNOWN,North
2021-12-01T10:00:02Z,2021,10,0,335.4167,335.4167,60.329,-60.792,-999.0,1.53,-999.0,no,yes,no,300234068347720,SVPGHI,AOML,UNKNOWN,North
2021-12-01T10:59:57Z,2021,11,0,335.4583,335.4583,60.32,-60.802,-999.0,1.55,-999.0,no,yes,no,300234068347720,SVPGHI,AOML,UNKNOWN,North
2021-12-01T12:00:00Z,2021,12,0,335.5,335.5,60.315,-60.801,-999.0,1.55,-999.0,no,yes,no,300234068347720,SVPGHI,AOML,UNKNOWN,North
2021-12-01T13:00:02Z,2021,13,0,335.5417,335.5417,60.308,-60.792,-999.0,1.57,-999.0,no,yes,no,300234068347720,SVPGHI,AOML,UNKNOWN,North
2021-12-01T13:59:57Z,2021,14,0,335.5833,335.5833,60.299,-60.766,-999.0,1.6,-999.0,no,yes,no,300234068347720,SVPGHI,AOML,UNKNOWN,North
2021-12-01T15:00:00Z,2021,15,0,335.625,335.625,60.287,-60.735,-999.0,1.6,-999.0,no,yes,no,300234068347720,SVPGHI,AOML,UNKNOWN,North
2021-12-01T16:00:02Z,2021,16,0,335.6667,335.6667,60.268,-60.695,-999.0,1.61,-999.0,no,yes,no,300234068347720,SVPGHI,AOML,UNKNOWN,North
2021-12-01T16:59:57Z,2021,17,0,335.7083,335.7083,60.244,-60.662,-999.0,1.61,-999.0,no,yes,no,300234068347720,SVPGHI,AOML,UNKNOWN,North
2021-12-01T18:00:00Z,2021,18,0,335.75,335.75,60.216,-60.642,-999.0,1.63,-999.0,no,yes,no,300234068347720,SVPGHI,AOML,UNKNOWN,North
2021-12-01T19:00:02Z,2021,19,0,335.7917,335.7917,60.188,-60.638,-999.0,1.63,-999.0,no,yes,no,300234068347720,SVPGHI,AOML,UNKNOWN,North